CYXPCYFB

Guest
Details From CYXP - Pangnirtung
To CYFB - Iqaluit
Flight Number -
Tags generated
Created
Modified
Stats Distance 211 nm / 390 km
Max Altitude 25,300 ft / 7,711 m
Waypoints 4
Social Downloads 0
Likes 0
Share VATSIM

Download

Looking for another format? Having issues loading an existing format? Contact us
Advertisement - Login to hide

Notes

Basic altitude profile: - Ascent Rate: 2500ft/min - Ascent Speed: 250kts - Cruise Altitude: 35000ft - Cruise Speed: 420kts - Descent Rate: 1500ft/min - Descent Speed: 250kts Options: - Use NATs: yes - Use PACOTS: yes - Use low airways: yes - Use high airways: yes

Route

CYXP 6500N06500W RUDGA CYFB

ID Type Via Altitude Latitude Longitude Leg Dist Tot Dist Heading (true) Name
O CYXP APT - 0 ft / 0 m 66.14494˚ -65.71313˚ - 0 nm - Pangnirtung
6500N06500W LATLON - 25,300 ft / 7,711 m 65.00000˚ -65.00000˚ 71 nm 71 nm 165° / 166° -
RUDGA FIX - 20,300 ft / 6,187 m 64.33333˚ -65.00000˚ 40 nm 111 nm 180° / 180° -
O CYFB APT - 0 ft / 0 m 63.75657˚ -68.55606˚ 99 nm 210 nm 251° / 248° Iqaluit

Altitude Profile

Advertisement - Login to hide

Weather


0- 5 10 15 20 25 30 35+ Temperature / ° C

Clouds and Precipitation
Forecast for 2017-05-27 00:00 UTC. Updated an hour ago

Ground ~20,000 ft ~40,000 ft Winds

CYXP

Details ICAO CYXP (YXP)
Name Pangnirtung
Region Canada
Timezone Unknown (UTC+0.0)
Stats Elevation 73 ft / 22 m (AMSL)
Location 66.144940° -65.713130°
Runways 1
Magnetic Variation 30.783° W

METAR

Not found

TAF

TAF CYXP 261838Z 2619/2622 26008KT P6SM BKN015 TEMPO 2619/2620 SCT015 FM262000 26008KT P6SM FEW015 RMK NXT FCST WILL BE ISSUED AT 271545Z

Decode

Departure Runways

ID Width Length Bearing (true) Bearing (mag) Surface Threshold Offset Overrun Length
06T 98 ft / 30 m 2,919 ft / 890 m 60.95° 91.73° Gravel 0 ft / 0 m 0 ft / 0 m
24T 98 ft / 30 m 2,919 ft / 890 m 240.97° 271.75° Gravel 0 ft / 0 m 0 ft / 0 m

CYFB

Details ICAO CYFB (YFB)
Name Iqaluit
Region Canada
Timezone America/Iqaluit (UTC-4.0)
Stats Elevation 110 ft / 34 m (AMSL)
Location 63.756565° -68.556058°
Runways 1
Magnetic Variation 27.758° W

METAR

CYFB 270000Z 34014KT 30SM SKC 03/M04 A3021 RMK SLP235

Decode

TAF

TAF TAF CYFB 262343Z 2700/2724 32015KT P6SM SKC BECMG 2714/2716 32020KT RMK NXT FCST BY 270600Z

Decode

Destination Runways

ID Width Length Bearing (true) Bearing (mag) Surface Threshold Offset Overrun Length
17 200 ft / 61 m 8,605 ft / 2,623 m 135.58° 163.34° Asphalt 0 ft / 0 m 210 ft / 64 m
35 200 ft / 61 m 8,605 ft / 2,623 m 315.62° 343.38° Asphalt 0 ft / 0 m 243 ft / 74 m